Location: Brotuna
(46.2000°N, 22.6000°E)
Time: 15:58:56
(UTC+00:00)

Cosmos 1953 - Pass Details

Date: 09 April 2020
Orbit: 540 x 557 km, 82.5° (Epoch: 28 May)

Event Time Altitude Azimuth Distance (km) Brightness Sun altitude
Rises 17:55:40 0° 204° (SSW) 2,689 5.9 -8.5°
Reaches altitude 10° 17:57:53 10° 211° (SSW) 1,804 5.1 -8.8°
Maximum altitude 18:01:40 42° 284° (WNW) 785 3.8 -9.5°
Drops below altitude 10° 18:05:31 10° 356° (N) 1,829 5.3 -10.1°
Sets 18:07:47 0° 3° (N) 2,730 6.1 -10.4°
